Year,Month,Day,Hour,Minute,Value (Times are PST for insolation in W/m^2)
2016,07,04,00,00,0.00
2016,07,04,00,01,0.00
2016,07,04,00,02,0.00
2016,07,04,00,03,0.00
2016,07,04,00,04,0.00
2016,07,04,00,05,0.00
2016,07,04,00,06,0.00
2016,07,04,00,07,0.00
2016,07,04,00,08,0.00
2016,07,04,00,09,0.00
2016,07,04,00,10,0.00
2016,07,04,00,11,0.00
2016,07,04,00,12,0.00
2016,07,04,00,13,0.00
2016,07,04,00,14,0.00
2016,07,04,00,15,0.00
2016,07,04,00,16,0.00
2016,07,04,00,17,0.00
2016,07,04,00,18,0.00
2016,07,04,00,19,0.00
2016,07,04,00,20,0.00
2016,07,04,00,21,0.00
2016,07,04,00,22,0.00
2016,07,04,00,23,0.00
2016,07,04,00,24,0.00
2016,07,04,00,25,0.00
2016,07,04,00,26,0.00
2016,07,04,00,27,0.00
2016,07,04,00,28,0.00
2016,07,04,00,29,0.00
2016,07,04,00,30,0.00
2016,07,04,00,31,0.00
2016,07,04,00,32,0.00
2016,07,04,00,33,0.00
2016,07,04,00,34,0.00
2016,07,04,00,35,0.00
2016,07,04,00,36,0.00
2016,07,04,00,37,0.00
2016,07,04,00,38,0.00
2016,07,04,00,39,0.00
2016,07,04,00,40,0.00
2016,07,04,00,41,0.00
2016,07,04,00,42,0.00
2016,07,04,00,43,0.00
2016,07,04,00,44,0.00
2016,07,04,00,45,0.00
2016,07,04,00,46,0.00
2016,07,04,00,47,0.00
2016,07,04,00,48,0.00
2016,07,04,00,49,0.00
2016,07,04,00,50,0.00
2016,07,04,00,51,0.00
2016,07,04,00,52,0.00
2016,07,04,00,53,0.00
2016,07,04,00,54,0.00
2016,07,04,00,55,0.00
2016,07,04,00,56,0.00
2016,07,04,00,57,0.00
2016,07,04,00,58,0.00
2016,07,04,00,59,0.00
2016,07,04,01,00,0.00
2016,07,04,01,01,0.00
2016,07,04,01,02,0.00
2016,07,04,01,03,0.00
2016,07,04,01,04,0.00
2016,07,04,01,05,0.00
2016,07,04,01,06,0.00
2016,07,04,01,07,0.00
2016,07,04,01,08,0.00
2016,07,04,01,09,0.00
2016,07,04,01,10,0.00
2016,07,04,01,11,0.00
2016,07,04,01,12,0.00
2016,07,04,01,13,0.00
2016,07,04,01,14,0.00
2016,07,04,01,15,0.00
2016,07,04,01,16,0.00
2016,07,04,01,17,0.00
2016,07,04,01,18,0.00
2016,07,04,01,19,0.00
2016,07,04,01,20,0.00
2016,07,04,01,21,0.00
2016,07,04,01,22,0.00
2016,07,04,01,23,0.00
2016,07,04,01,24,0.00
2016,07,04,01,25,0.00
2016,07,04,01,26,0.00
2016,07,04,01,27,0.00
2016,07,04,01,28,0.00
2016,07,04,01,29,0.00
2016,07,04,01,30,0.00
2016,07,04,01,31,0.00
2016,07,04,01,32,0.00
2016,07,04,01,33,0.00
2016,07,04,01,34,0.00
2016,07,04,01,35,0.00
2016,07,04,01,36,0.00
2016,07,04,01,37,0.00
2016,07,04,01,38,0.00
2016,07,04,01,39,0.00
2016,07,04,01,40,0.00
2016,07,04,01,41,0.00
2016,07,04,01,42,0.00
2016,07,04,01,43,0.00
2016,07,04,01,44,0.00
2016,07,04,01,45,0.00
2016,07,04,01,46,0.00
2016,07,04,01,47,0.00
2016,07,04,01,48,0.00
2016,07,04,01,49,0.00
2016,07,04,01,50,0.00
2016,07,04,01,51,0.00
2016,07,04,01,52,0.00
2016,07,04,01,53,0.00
2016,07,04,01,54,0.00
2016,07,04,01,55,0.00
2016,07,04,01,56,0.00
2016,07,04,01,57,0.00
2016,07,04,01,58,0.00
2016,07,04,01,59,0.00
2016,07,04,02,00,0.00
2016,07,04,02,01,0.00
2016,07,04,02,02,0.00
2016,07,04,02,03,0.00
2016,07,04,02,04,0.00
2016,07,04,02,05,0.00
2016,07,04,02,06,0.00
2016,07,04,02,07,0.00
2016,07,04,02,08,0.00
2016,07,04,02,09,0.00
2016,07,04,02,10,0.00
2016,07,04,02,11,0.00
2016,07,04,02,12,0.00
2016,07,04,02,13,0.00
2016,07,04,02,14,0.00
2016,07,04,02,15,0.00
2016,07,04,02,16,0.00
2016,07,04,02,17,0.00
2016,07,04,02,18,0.00
2016,07,04,02,19,0.00
2016,07,04,02,20,0.00
2016,07,04,02,21,0.00
2016,07,04,02,22,0.00
2016,07,04,02,23,0.00
2016,07,04,02,24,0.00
2016,07,04,02,25,0.00
2016,07,04,02,26,0.00
2016,07,04,02,27,0.00
2016,07,04,02,28,0.00
2016,07,04,02,29,0.00
2016,07,04,02,30,0.00
2016,07,04,02,31,0.00
2016,07,04,02,32,0.00
2016,07,04,02,33,0.00
2016,07,04,02,34,0.00
2016,07,04,02,35,0.00
2016,07,04,02,36,0.00
2016,07,04,02,37,0.00
2016,07,04,02,38,0.00
2016,07,04,02,39,0.00
2016,07,04,02,40,0.00
2016,07,04,02,41,0.00
2016,07,04,02,42,0.00
2016,07,04,02,43,0.00
2016,07,04,02,44,0.00
2016,07,04,02,45,0.00
2016,07,04,02,46,0.00
2016,07,04,02,47,0.00
2016,07,04,02,48,0.00
2016,07,04,02,49,0.00
2016,07,04,02,50,0.00
2016,07,04,02,51,0.00
2016,07,04,02,52,0.00
2016,07,04,02,53,0.00
2016,07,04,02,54,0.00
2016,07,04,02,55,0.00
2016,07,04,02,56,0.00
2016,07,04,02,57,0.00
2016,07,04,02,58,0.00
2016,07,04,02,59,0.00
2016,07,04,03,00,0.00
2016,07,04,03,01,0.00
2016,07,04,03,02,0.00
2016,07,04,03,03,0.00
2016,07,04,03,04,0.00
2016,07,04,03,05,0.00
2016,07,04,03,06,0.00
2016,07,04,03,07,0.00
2016,07,04,03,08,0.00
2016,07,04,03,09,0.00
2016,07,04,03,10,0.00
2016,07,04,03,11,0.00
2016,07,04,03,12,0.00
2016,07,04,03,13,0.00
2016,07,04,03,14,0.00
2016,07,04,03,15,0.00
2016,07,04,03,16,0.00
2016,07,04,03,17,0.00
2016,07,04,03,18,0.00
2016,07,04,03,19,0.00
2016,07,04,03,20,0.00
2016,07,04,03,21,0.00
2016,07,04,03,22,0.00
2016,07,04,03,23,0.00
2016,07,04,03,24,0.00
2016,07,04,03,25,0.00
2016,07,04,03,26,0.00
2016,07,04,03,27,0.00
2016,07,04,03,28,0.00
2016,07,04,03,29,0.00
2016,07,04,03,30,0.00
2016,07,04,03,31,0.00
2016,07,04,03,32,0.00
2016,07,04,03,33,0.00
2016,07,04,03,34,0.00
2016,07,04,03,35,0.00
2016,07,04,03,36,0.00
2016,07,04,03,37,0.00
2016,07,04,03,38,0.00
2016,07,04,03,39,0.00
2016,07,04,03,40,0.00
2016,07,04,03,41,0.00
2016,07,04,03,42,0.00
2016,07,04,03,43,0.00
2016,07,04,03,44,0.00
2016,07,04,03,45,0.00
2016,07,04,03,46,0.00
2016,07,04,03,47,0.00
2016,07,04,03,48,0.00
2016,07,04,03,49,0.00
2016,07,04,03,50,0.00
2016,07,04,03,51,0.00
2016,07,04,03,52,0.00
2016,07,04,03,53,0.00
2016,07,04,03,54,0.00
2016,07,04,03,55,0.00
2016,07,04,03,56,0.00
2016,07,04,03,57,0.00
2016,07,04,03,58,0.00
2016,07,04,03,59,0.00
2016,07,04,04,00,0.00
2016,07,04,04,01,0.00
2016,07,04,04,02,0.00
2016,07,04,04,03,0.00
2016,07,04,04,04,0.00
2016,07,04,04,05,0.00
2016,07,04,04,06,0.00
2016,07,04,04,07,0.00
2016,07,04,04,08,0.00
2016,07,04,04,09,0.00
2016,07,04,04,10,0.00
2016,07,04,04,11,0.00
2016,07,04,04,12,0.00
2016,07,04,04,13,0.00
2016,07,04,04,14,0.00
2016,07,04,04,15,0.00
2016,07,04,04,16,0.00
2016,07,04,04,17,0.00
2016,07,04,04,18,0.00
2016,07,04,04,19,0.00
2016,07,04,04,20,0.00
2016,07,04,04,21,0.00
2016,07,04,04,22,0.00
2016,07,04,04,23,0.00
2016,07,04,04,24,0.00
2016,07,04,04,25,0.00
2016,07,04,04,26,0.00
2016,07,04,04,27,0.00
2016,07,04,04,28,0.00
2016,07,04,04,29,0.00
2016,07,04,04,30,0.00
2016,07,04,04,31,0.00
2016,07,04,04,32,0.00
2016,07,04,04,33,0.00
2016,07,04,04,34,0.00
2016,07,04,04,35,0.00
2016,07,04,04,36,0.00
2016,07,04,04,37,0.00
2016,07,04,04,38,0.00
2016,07,04,04,39,0.00
2016,07,04,04,40,0.00
2016,07,04,04,41,0.00
2016,07,04,04,42,0.00
2016,07,04,04,43,0.00
2016,07,04,04,44,0.00
2016,07,04,04,45,0.00
2016,07,04,04,46,0.00
2016,07,04,04,47,0.00
2016,07,04,04,48,0.00
2016,07,04,04,49,0.00
2016,07,04,04,50,0.00
2016,07,04,04,51,0.00
2016,07,04,04,52,0.00
2016,07,04,04,53,0.00
2016,07,04,04,54,0.00
2016,07,04,04,55,0.00
2016,07,04,04,56,0.00
2016,07,04,04,57,0.00
2016,07,04,04,58,0.00
2016,07,04,04,59,0.00
2016,07,04,05,00,0.00
2016,07,04,05,01,0.00
2016,07,04,05,02,0.00
2016,07,04,05,03,0.00
2016,07,04,05,04,0.00
2016,07,04,05,05,0.00
2016,07,04,05,06,0.00
2016,07,04,05,07,0.00
2016,07,04,05,08,0.00
2016,07,04,05,09,0.00
2016,07,04,05,10,0.00
2016,07,04,05,11,0.00
2016,07,04,05,12,0.00
2016,07,04,05,13,0.00
2016,07,04,05,14,0.00
2016,07,04,05,15,0.00
2016,07,04,05,16,0.00
2016,07,04,05,17,0.00
2016,07,04,05,18,0.00
2016,07,04,05,19,0.00
2016,07,04,05,20,0.00
2016,07,04,05,21,0.00
2016,07,04,05,22,0.00
2016,07,04,05,23,0.00
2016,07,04,05,24,0.00
2016,07,04,05,25,0.00
2016,07,04,05,26,0.00
2016,07,04,05,27,0.00
2016,07,04,05,28,5.00
2016,07,04,05,29,5.00
2016,07,04,05,30,5.00
2016,07,04,05,31,5.00
2016,07,04,05,32,5.00
2016,07,04,05,33,5.00
2016,07,04,05,34,5.00
2016,07,04,05,35,5.00
2016,07,04,05,36,7.00
2016,07,04,05,37,7.00
2016,07,04,05,38,7.00
2016,07,04,05,39,9.00
2016,07,04,05,40,9.00
2016,07,04,05,41,9.00
2016,07,04,05,42,9.00
2016,07,04,05,43,9.00
2016,07,04,05,44,9.00
2016,07,04,05,45,9.00
2016,07,04,05,46,9.00
2016,07,04,05,47,11.00
2016,07,04,05,48,11.00
2016,07,04,05,49,11.00
2016,07,04,05,50,11.00
2016,07,04,05,51,11.00
2016,07,04,05,52,11.00
2016,07,04,05,53,11.00
2016,07,04,05,54,12.00
2016,07,04,05,55,12.00
2016,07,04,05,56,12.00
2016,07,04,05,57,14.00
2016,07,04,05,58,14.00
2016,07,04,05,59,14.00
2016,07,04,06,00,14.00
2016,07,04,06,01,14.00
2016,07,04,06,02,14.00
2016,07,04,06,03,16.00
2016,07,04,06,04,16.00
2016,07,04,06,05,18.00
2016,07,04,06,06,18.00
2016,07,04,06,07,19.00
2016,07,04,06,08,19.00
2016,07,04,06,09,19.00
2016,07,04,06,10,19.00
2016,07,04,06,11,21.00
2016,07,04,06,12,21.00
2016,07,04,06,13,21.00
2016,07,04,06,14,21.00
2016,07,04,06,15,23.00
2016,07,04,06,16,23.00
2016,07,04,06,17,23.00
2016,07,04,06,18,23.00
2016,07,04,06,19,23.00
2016,07,04,06,20,23.00
2016,07,04,06,21,23.00
2016,07,04,06,22,23.00
2016,07,04,06,23,23.00
2016,07,04,06,24,23.00
2016,07,04,06,25,23.00
2016,07,04,06,26,23.00
2016,07,04,06,27,25.00
2016,07,04,06,28,26.00
2016,07,04,06,29,28.00
2016,07,04,06,30,30.00
2016,07,04,06,31,32.00
2016,07,04,06,32,33.00
2016,07,04,06,33,35.00
2016,07,04,06,34,35.00
2016,07,04,06,35,37.00
2016,07,04,06,36,37.00
2016,07,04,06,37,39.00
2016,07,04,06,38,39.00
2016,07,04,06,39,40.00
2016,07,04,06,40,40.00
2016,07,04,06,41,40.00
2016,07,04,06,42,40.00
2016,07,04,06,43,40.00
2016,07,04,06,44,42.00
2016,07,04,06,45,42.00
2016,07,04,06,46,42.00
2016,07,04,06,47,42.00
2016,07,04,06,48,44.00
2016,07,04,06,49,47.00
2016,07,04,06,50,49.00
2016,07,04,06,51,51.00
2016,07,04,06,52,53.00
2016,07,04,06,53,54.00
2016,07,04,06,54,54.00
2016,07,04,06,55,56.00
2016,07,04,06,56,56.00
2016,07,04,06,57,56.00
2016,07,04,06,58,56.00
2016,07,04,06,59,56.00
2016,07,04,07,00,56.00
2016,07,04,07,01,58.00
2016,07,04,07,02,58.00
2016,07,04,07,03,56.00
2016,07,04,07,04,56.00
2016,07,04,07,05,54.00
2016,07,04,07,06,54.00
2016,07,04,07,07,54.00
2016,07,04,07,08,53.00
2016,07,04,07,09,51.00
2016,07,04,07,10,51.00
2016,07,04,07,11,49.00
2016,07,04,07,12,49.00
2016,07,04,07,13,51.00
2016,07,04,07,14,53.00
2016,07,04,07,15,54.00
2016,07,04,07,16,54.00
2016,07,04,07,17,56.00
2016,07,04,07,18,60.00
2016,07,04,07,19,60.00
2016,07,04,07,20,62.00
2016,07,04,07,21,63.00
2016,07,04,07,22,65.00
2016,07,04,07,23,65.00
2016,07,04,07,24,69.00
2016,07,04,07,25,70.00
2016,07,04,07,26,74.00
2016,07,04,07,27,77.00
2016,07,04,07,28,83.00
2016,07,04,07,29,86.00
2016,07,04,07,30,93.00
2016,07,04,07,31,97.00
2016,07,04,07,32,97.00
2016,07,04,07,33,97.00
2016,07,04,07,34,98.00
2016,07,04,07,35,98.00
2016,07,04,07,36,100.00
2016,07,04,07,37,102.00
2016,07,04,07,38,102.00
2016,07,04,07,39,104.00
2016,07,04,07,40,104.00
2016,07,04,07,41,107.00
2016,07,04,07,42,116.00
2016,07,04,07,43,121.00
2016,07,04,07,44,125.00
2016,07,04,07,45,128.00
2016,07,04,07,46,127.00
2016,07,04,07,47,125.00
2016,07,04,07,48,121.00
2016,07,04,07,49,120.00
2016,07,04,07,50,120.00
2016,07,04,07,51,121.00
2016,07,04,07,52,123.00
2016,07,04,07,53,127.00
2016,07,04,07,54,128.00
2016,07,04,07,55,130.00
2016,07,04,07,56,132.00
2016,07,04,07,57,135.00
2016,07,04,07,58,139.00
2016,07,04,07,59,155.00
2016,07,04,08,00,162.00
2016,07,04,08,01,163.00
2016,07,04,08,02,162.00
2016,07,04,08,03,162.00
2016,07,04,08,04,165.00
2016,07,04,08,05,174.00
2016,07,04,08,06,178.00
2016,07,04,08,07,183.00
2016,07,04,08,08,186.00
2016,07,04,08,09,188.00
2016,07,04,08,10,190.00
2016,07,04,08,11,181.00
2016,07,04,08,12,176.00
2016,07,04,08,13,171.00
2016,07,04,08,14,163.00
2016,07,04,08,15,156.00
2016,07,04,08,16,148.00
2016,07,04,08,17,135.00
2016,07,04,08,18,132.00
2016,07,04,08,19,130.00
2016,07,04,08,20,128.00
2016,07,04,08,21,127.00
2016,07,04,08,22,125.00
2016,07,04,08,23,120.00
2016,07,04,08,24,116.00
2016,07,04,08,25,113.00
2016,07,04,08,26,111.00
2016,07,04,08,27,109.00
2016,07,04,08,28,109.00
2016,07,04,08,29,109.00
2016,07,04,08,30,107.00
2016,07,04,08,31,105.00
2016,07,04,08,32,105.00
2016,07,04,08,33,105.00
2016,07,04,08,34,109.00
2016,07,04,08,35,111.00
2016,07,04,08,36,114.00
2016,07,04,08,37,120.00
2016,07,04,08,38,125.00
2016,07,04,08,39,130.00
2016,07,04,08,40,141.00
2016,07,04,08,41,146.00
2016,07,04,08,42,151.00
2016,07,04,08,43,158.00
2016,07,04,08,44,165.00
2016,07,04,08,45,176.00
2016,07,04,08,46,197.00
2016,07,04,08,47,209.00
2016,07,04,08,48,220.00
2016,07,04,08,49,230.00
2016,07,04,08,50,241.00
2016,07,04,08,51,253.00
2016,07,04,08,52,262.00
2016,07,04,08,53,267.00
2016,07,04,08,54,287.00
2016,07,04,08,55,329.00
2016,07,04,08,56,338.00
2016,07,04,08,57,388.00
2016,07,04,08,58,431.00
2016,07,04,08,59,371.00
2016,07,04,09,00,313.00
2016,07,04,09,01,285.00
2016,07,04,09,02,267.00
2016,07,04,09,03,294.00
2016,07,04,09,04,294.00
2016,07,04,09,05,452.00
2016,07,04,09,06,434.00
2016,07,04,09,07,392.00
2016,07,04,09,08,427.00
2016,07,04,09,09,515.00
2016,07,04,09,10,429.00
2016,07,04,09,11,480.00
2016,07,04,09,12,480.00
2016,07,04,09,13,480.00
2016,07,04,09,14,480.00
2016,07,04,09,15,422.00
2016,07,04,09,16,457.00
2016,07,04,09,17,387.00
2016,07,04,09,18,360.00
2016,07,04,09,19,327.00
2016,07,04,09,20,336.00
2016,07,04,09,21,355.00
2016,07,04,09,22,350.00
2016,07,04,09,23,339.00
2016,07,04,09,24,329.00
2016,07,04,09,25,316.00
2016,07,04,09,26,302.00
2016,07,04,09,27,279.00
2016,07,04,09,28,278.00
2016,07,04,09,29,276.00
2016,07,04,09,30,274.00
2016,07,04,09,31,269.00
2016,07,04,09,32,262.00
2016,07,04,09,33,257.00
2016,07,04,09,34,257.00
2016,07,04,09,35,258.00
2016,07,04,09,36,264.00
2016,07,04,09,37,265.00
2016,07,04,09,38,272.00
2016,07,04,09,39,288.00
2016,07,04,09,40,334.00
2016,07,04,09,41,316.00
2016,07,04,09,42,357.00
2016,07,04,09,43,341.00
2016,07,04,09,44,369.00
2016,07,04,09,45,381.00
2016,07,04,09,46,388.00
2016,07,04,09,47,404.00
2016,07,04,09,48,459.00
2016,07,04,09,49,459.00
2016,07,04,09,50,515.00
2016,07,04,09,51,469.00
2016,07,04,09,52,424.00
2016,07,04,09,53,452.00
2016,07,04,09,54,496.00
2016,07,04,09,55,431.00
2016,07,04,09,56,508.00
2016,07,04,09,57,508.00
2016,07,04,09,58,508.00
2016,07,04,09,59,587.00
2016,07,04,10,00,587.00
2016,07,04,10,01,587.00
2016,07,04,10,02,636.00
2016,07,04,10,03,636.00
2016,07,04,10,04,475.00
2016,07,04,10,05,475.00
2016,07,04,10,06,475.00
2016,07,04,10,07,436.00
2016,07,04,10,08,357.00
2016,07,04,10,09,343.00
2016,07,04,10,10,338.00
2016,07,04,10,11,334.00
2016,07,04,10,12,334.00
2016,07,04,10,13,332.00
2016,07,04,10,14,325.00
2016,07,04,10,15,322.00
2016,07,04,10,16,315.00
2016,07,04,10,17,309.00
2016,07,04,10,18,304.00
2016,07,04,10,19,299.00
2016,07,04,10,20,290.00
2016,07,04,10,21,288.00
2016,07,04,10,22,288.00
2016,07,04,10,23,292.00
2016,07,04,10,24,299.00
2016,07,04,10,25,313.00
2016,07,04,10,26,378.00
2016,07,04,10,27,378.00
2016,07,04,10,28,378.00
2016,07,04,10,29,378.00
2016,07,04,10,30,378.00
2016,07,04,10,31,378.00
2016,07,04,10,32,708.00
2016,07,04,10,33,708.00
2016,07,04,10,34,708.00
2016,07,04,10,35,504.00
2016,07,04,10,36,504.00
2016,07,04,10,37,316.00
2016,07,04,10,38,308.00
2016,07,04,10,39,299.00
2016,07,04,10,40,285.00
2016,07,04,10,41,269.00
2016,07,04,10,42,253.00
2016,07,04,10,43,227.00
2016,07,04,10,44,220.00
2016,07,04,10,45,214.00
2016,07,04,10,46,213.00
2016,07,04,10,47,209.00
2016,07,04,10,48,207.00
2016,07,04,10,49,204.00
2016,07,04,10,50,202.00
2016,07,04,10,51,204.00
2016,07,04,10,52,206.00
2016,07,04,10,53,209.00
2016,07,04,10,54,213.00
2016,07,04,10,55,230.00
2016,07,04,10,56,244.00
2016,07,04,10,57,262.00
2016,07,04,10,58,285.00
2016,07,04,10,59,309.00
2016,07,04,11,00,336.00
2016,07,04,11,01,371.00
2016,07,04,11,02,380.00
2016,07,04,11,03,385.00
2016,07,04,11,04,394.00
2016,07,04,11,05,462.00
2016,07,04,11,06,439.00
2016,07,04,11,07,446.00
2016,07,04,11,08,555.00
2016,07,04,11,09,555.00
2016,07,04,11,10,555.00
2016,07,04,11,11,392.00
2016,07,04,11,12,380.00
2016,07,04,11,13,369.00
2016,07,04,11,14,369.00
2016,07,04,11,15,359.00
2016,07,04,11,16,359.00
2016,07,04,11,17,359.00
2016,07,04,11,18,376.00
2016,07,04,11,19,383.00
2016,07,04,11,20,394.00
2016,07,04,11,21,381.00
2016,07,04,11,22,380.00
2016,07,04,11,23,388.00
2016,07,04,11,24,418.00
2016,07,04,11,25,434.00
2016,07,04,11,26,457.00
2016,07,04,11,27,461.00
2016,07,04,11,28,469.00
2016,07,04,11,29,503.00
2016,07,04,11,30,503.00
2016,07,04,11,31,853.00
2016,07,04,11,32,830.00
2016,07,04,11,33,830.00
2016,07,04,11,34,726.00
2016,07,04,11,35,726.00
2016,07,04,11,36,564.00
2016,07,04,11,37,547.00
2016,07,04,11,38,540.00
2016,07,04,11,39,570.00
2016,07,04,11,40,541.00
2016,07,04,11,41,533.00
2016,07,04,11,42,550.00
2016,07,04,11,43,559.00
2016,07,04,11,44,577.00
2016,07,04,11,45,645.00
2016,07,04,11,46,645.00
2016,07,04,11,47,645.00
2016,07,04,11,48,591.00
2016,07,04,11,49,582.00
2016,07,04,11,50,617.00
2016,07,04,11,51,582.00
2016,07,04,11,52,582.00
2016,07,04,11,53,582.00
2016,07,04,11,54,536.00
2016,07,04,11,55,510.00
2016,07,04,11,56,510.00
2016,07,04,11,57,526.00
2016,07,04,11,58,490.00
2016,07,04,11,59,480.00
2016,07,04,12,00,476.00
2016,07,04,12,01,459.00
2016,07,04,12,02,434.00
2016,07,04,12,03,420.00
2016,07,04,12,04,408.00
2016,07,04,12,05,385.00
2016,07,04,12,06,371.00
2016,07,04,12,07,359.00
2016,07,04,12,08,346.00
2016,07,04,12,09,336.00
2016,07,04,12,10,330.00
2016,07,04,12,11,323.00
2016,07,04,12,12,323.00
2016,07,04,12,13,325.00
2016,07,04,12,14,329.00
2016,07,04,12,15,334.00
2016,07,04,12,16,338.00
2016,07,04,12,17,343.00
2016,07,04,12,18,345.00
2016,07,04,12,19,366.00
2016,07,04,12,20,374.00
2016,07,04,12,21,374.00
2016,07,04,12,22,374.00
2016,07,04,12,23,374.00
2016,07,04,12,24,374.00
2016,07,04,12,25,374.00
2016,07,04,12,26,374.00
2016,07,04,12,27,374.00
2016,07,04,12,28,374.00
2016,07,04,12,29,374.00
2016,07,04,12,30,374.00
2016,07,04,12,31,374.00
2016,07,04,12,32,740.00
2016,07,04,12,33,719.00
2016,07,04,12,34,740.00
2016,07,04,12,35,795.00
2016,07,04,12,36,540.00
2016,07,04,12,37,510.00
2016,07,04,12,38,594.00
2016,07,04,12,39,520.00
2016,07,04,12,40,473.00
2016,07,04,12,41,466.00
2016,07,04,12,42,466.00
2016,07,04,12,43,519.00
2016,07,04,12,44,466.00
2016,07,04,12,45,457.00
2016,07,04,12,46,425.00
2016,07,04,12,47,411.00
2016,07,04,12,48,403.00
2016,07,04,12,49,397.00
2016,07,04,12,50,394.00
2016,07,04,12,51,392.00
2016,07,04,12,52,381.00
2016,07,04,12,53,374.00
2016,07,04,12,54,364.00
2016,07,04,12,55,357.00
2016,07,04,12,56,353.00
2016,07,04,12,57,352.00
2016,07,04,12,58,353.00
2016,07,04,12,59,355.00
2016,07,04,13,00,355.00
2016,07,04,13,01,355.00
2016,07,04,13,02,352.00
2016,07,04,13,03,346.00
2016,07,04,13,04,338.00
2016,07,04,13,05,336.00
2016,07,04,13,06,338.00
2016,07,04,13,07,343.00
2016,07,04,13,08,352.00
2016,07,04,13,09,360.00
2016,07,04,13,10,388.00
2016,07,04,13,11,410.00
2016,07,04,13,12,431.00
2016,07,04,13,13,452.00
2016,07,04,13,14,531.00
2016,07,04,13,15,536.00
2016,07,04,13,16,441.00
2016,07,04,13,17,420.00
2016,07,04,13,18,406.00
2016,07,04,13,19,397.00
2016,07,04,13,20,392.00
2016,07,04,13,21,403.00
2016,07,04,13,22,487.00
2016,07,04,13,23,487.00
2016,07,04,13,24,487.00
2016,07,04,13,25,805.00
2016,07,04,13,26,805.00
2016,07,04,13,27,1079.00
2016,07,04,13,28,1079.00
2016,07,04,13,29,1079.00
2016,07,04,13,30,1079.00
2016,07,04,13,31,1106.00
2016,07,04,13,32,1137.00
2016,07,04,13,33,1109.00
2016,07,04,13,34,1109.00
2016,07,04,13,35,1109.00
2016,07,04,13,36,1109.00
2016,07,04,13,37,1109.00
2016,07,04,13,38,1109.00
2016,07,04,13,39,339.00
2016,07,04,13,40,359.00
2016,07,04,13,41,360.00
2016,07,04,13,42,381.00
2016,07,04,13,43,420.00
2016,07,04,13,44,420.00
2016,07,04,13,45,424.00
2016,07,04,13,46,469.00
2016,07,04,13,47,510.00
2016,07,04,13,48,510.00
2016,07,04,13,49,510.00
2016,07,04,13,50,788.00
2016,07,04,13,51,983.00
2016,07,04,13,52,983.00
2016,07,04,13,53,983.00
2016,07,04,13,54,888.00
2016,07,04,13,55,888.00
2016,07,04,13,56,888.00
2016,07,04,13,57,686.00
2016,07,04,13,58,448.00
2016,07,04,13,59,373.00
2016,07,04,14,00,376.00
2016,07,04,14,01,383.00
2016,07,04,14,02,404.00
2016,07,04,14,03,390.00
2016,07,04,14,04,385.00
2016,07,04,14,05,390.00
2016,07,04,14,06,399.00
2016,07,04,14,07,388.00
2016,07,04,14,08,378.00
2016,07,04,14,09,385.00
2016,07,04,14,10,396.00
2016,07,04,14,11,403.00
2016,07,04,14,12,403.00
2016,07,04,14,13,390.00
2016,07,04,14,14,388.00
2016,07,04,14,15,396.00
2016,07,04,14,16,403.00
2016,07,04,14,17,399.00
2016,07,04,14,18,390.00
2016,07,04,14,19,388.00
2016,07,04,14,20,417.00
2016,07,04,14,21,415.00
2016,07,04,14,22,439.00
2016,07,04,14,23,410.00
2016,07,04,14,24,399.00
2016,07,04,14,25,388.00
2016,07,04,14,26,376.00
2016,07,04,14,27,369.00
2016,07,04,14,28,371.00
2016,07,04,14,29,364.00
2016,07,04,14,30,350.00
2016,07,04,14,31,346.00
2016,07,04,14,32,325.00
2016,07,04,14,33,316.00
2016,07,04,14,34,311.00
2016,07,04,14,35,309.00
2016,07,04,14,36,313.00
2016,07,04,14,37,320.00
2016,07,04,14,38,339.00
2016,07,04,14,39,348.00
2016,07,04,14,40,357.00
2016,07,04,14,41,366.00
2016,07,04,14,42,367.00
2016,07,04,14,43,367.00
2016,07,04,14,44,367.00
2016,07,04,14,45,371.00
2016,07,04,14,46,376.00
2016,07,04,14,47,390.00
2016,07,04,14,48,401.00
2016,07,04,14,49,418.00
2016,07,04,14,50,418.00
2016,07,04,14,51,415.00
2016,07,04,14,52,429.00
2016,07,04,14,53,485.00
2016,07,04,14,54,555.00
2016,07,04,14,55,622.00
2016,07,04,14,56,622.00
2016,07,04,14,57,622.00
2016,07,04,14,58,401.00
2016,07,04,14,59,388.00
2016,07,04,15,00,383.00
2016,07,04,15,01,388.00
2016,07,04,15,02,394.00
2016,07,04,15,03,413.00
2016,07,04,15,04,431.00
2016,07,04,15,05,457.00
2016,07,04,15,06,424.00
2016,07,04,15,07,424.00
2016,07,04,15,08,489.00
2016,07,04,15,09,497.00
2016,07,04,15,10,445.00
2016,07,04,15,11,448.00
2016,07,04,15,12,439.00
2016,07,04,15,13,441.00
2016,07,04,15,14,441.00
2016,07,04,15,15,353.00
2016,07,04,15,16,336.00
2016,07,04,15,17,330.00
2016,07,04,15,18,332.00
2016,07,04,15,19,334.00
2016,07,04,15,20,339.00
2016,07,04,15,21,353.00
2016,07,04,15,22,385.00
2016,07,04,15,23,388.00
2016,07,04,15,24,399.00
2016,07,04,15,25,399.00
2016,07,04,15,26,399.00
2016,07,04,15,27,399.00
2016,07,04,15,28,399.00
2016,07,04,15,29,371.00
2016,07,04,15,30,311.00
2016,07,04,15,31,302.00
2016,07,04,15,32,302.00
2016,07,04,15,33,302.00
2016,07,04,15,34,313.00
2016,07,04,15,35,329.00
2016,07,04,15,36,360.00
2016,07,04,15,37,357.00
2016,07,04,15,38,348.00
2016,07,04,15,39,345.00
2016,07,04,15,40,346.00
2016,07,04,15,41,357.00
2016,07,04,15,42,439.00
2016,07,04,15,43,468.00
2016,07,04,15,44,499.00
2016,07,04,15,45,425.00
2016,07,04,15,46,425.00
2016,07,04,15,47,1000.00
2016,07,04,15,48,907.00
2016,07,04,15,49,907.00
2016,07,04,15,50,429.00
2016,07,04,15,51,429.00
2016,07,04,15,52,429.00
2016,07,04,15,53,429.00
2016,07,04,15,54,497.00
2016,07,04,15,55,438.00
2016,07,04,15,56,417.00
2016,07,04,15,57,441.00
2016,07,04,15,58,441.00
2016,07,04,15,59,485.00
2016,07,04,16,00,561.00
2016,07,04,16,01,492.00
2016,07,04,16,02,492.00
2016,07,04,16,03,341.00
2016,07,04,16,04,338.00
2016,07,04,16,05,921.00
2016,07,04,16,06,921.00
2016,07,04,16,07,313.00
2016,07,04,16,08,316.00
2016,07,04,16,09,353.00
2016,07,04,16,10,320.00
2016,07,04,16,11,329.00
2016,07,04,16,12,329.00
2016,07,04,16,13,427.00
2016,07,04,16,14,492.00
2016,07,04,16,15,492.00
2016,07,04,16,16,828.00
2016,07,04,16,17,828.00
2016,07,04,16,18,963.00
2016,07,04,16,19,963.00
2016,07,04,16,20,963.00
2016,07,04,16,21,963.00
2016,07,04,16,22,993.00
2016,07,04,16,23,993.00
2016,07,04,16,24,993.00
2016,07,04,16,25,993.00
2016,07,04,16,26,993.00
2016,07,04,16,27,640.00
2016,07,04,16,28,640.00
2016,07,04,16,29,640.00
2016,07,04,16,30,640.00
2016,07,04,16,31,979.00
2016,07,04,16,32,979.00
2016,07,04,16,33,979.00
2016,07,04,16,34,557.00
2016,07,04,16,35,501.00
2016,07,04,16,36,295.00
2016,07,04,16,37,281.00
2016,07,04,16,38,272.00
2016,07,04,16,39,265.00
2016,07,04,16,40,260.00
2016,07,04,16,41,255.00
2016,07,04,16,42,257.00
2016,07,04,16,43,260.00
2016,07,04,16,44,267.00
2016,07,04,16,45,271.00
2016,07,04,16,46,283.00
2016,07,04,16,47,287.00
2016,07,04,16,48,288.00
2016,07,04,16,49,297.00
2016,07,04,16,50,299.00
2016,07,04,16,51,320.00
2016,07,04,16,52,339.00
2016,07,04,16,53,301.00
2016,07,04,16,54,285.00
2016,07,04,16,55,279.00
2016,07,04,16,56,323.00
2016,07,04,16,57,355.00
2016,07,04,16,58,304.00
2016,07,04,16,59,301.00
2016,07,04,17,00,274.00
2016,07,04,17,01,262.00
2016,07,04,17,02,257.00
2016,07,04,17,03,251.00
2016,07,04,17,04,236.00
2016,07,04,17,05,225.00
2016,07,04,17,06,220.00
2016,07,04,17,07,220.00
2016,07,04,17,08,218.00